EW5209 Weather Reports


Display with metric or nautical units.
time (UTC)temp
F
wind
direction
speed
MPH
gust
MPH
rain 1hr
in
rain 24hr
in
rain mn
in
humidity
%
barometer
mb
20260504234549 79 164 4.0 12.0 0.00 0.00 0.00 64 1006.9
20260504234046 79 123 4.0 15.0 0.00 0.00 0.00 63 1007.1
20260504233548 79 148 5.0 15.0 0.00 0.00 0.00 63 1007.0
20260504233048 79 133 6.0 15.0 0.00 0.00 0.00 62 1007.0
20260504232548 79 237 5.0 15.0 0.00 0.00 0.00 61 1007.0
20260504232047 80 118 5.0 15.0 0.00 0.00 0.00 62 1006.9
20260504231548 80 134 6.0 17.0 0.00 0.00 0.00 61 1007.0
20260504231047 80 128 6.0 17.0 0.00 0.00 0.00 61 1007.2
20260504230547 80 193 6.0 22.0 0.00 0.00 0.00 60 1007.3
20260504230054 80 205 7.0 16.0 0.00 0.00 0.00 61 1007.3
20260504230048 80 201 6.0 22.0 0.00 0.00 0.00 60 1007.3
20260504225052 80 217 7.0 16.0 0.00 0.00 0.00 59 1007.4
20260504225048 80 146 8.0 16.0 0.00 0.00 0.00 60 1007.5
20260504224047 81 233 5.0 13.0 0.00 0.00 0.00 59 1007.4
20260504223547 81 213 5.0 13.0 0.00 0.00 0.00 57 1007.5
20260504223102 82 162 5.0 15.0 0.00 0.00 0.00 58 1007.3
20260504223051 82 116 4.0 15.0 0.00 0.00 0.00 57 1007.3
20260504222047 82 224 5.0 13.0 0.00 0.00 0.00 58 1007.4
20260504221548 81 193 5.0 13.0 0.00 0.00 0.00 59 1007.6
20260504221048 81 221 6.0 19.0 0.00 0.00 0.00 58 1007.7
20260504220545 82 194 7.0 19.0 0.00 0.00 0.00 57 1007.7
20260504220045 82 214 8.0 19.0 0.00 0.00 0.00 57 1007.7
20260504215544 82 198 7.0 19.0 0.00 0.00 0.00 57 1007.8
20260504215043 82 144 7.0 16.0 0.00 0.00 0.00 57 1007.7
20260504214544 82 165 7.0 16.0 0.00 0.00 0.00 58 1007.8
20260504214539 82 97 7.0 16.0 0.00 0.00 0.00 58 1007.8
20260504214201 82 158 6.0 15.0 0.00 0.00 0.00 58 1008.0
20260504213040 82 65 7.0 15.0 0.00 0.00 0.00 57 1007.9
20260504213035 82 141 7.0 16.0 0.00 0.00 0.00 57 1008.0
20260504212655 82 203 7.0 20.0 0.00 0.00 0.00 57 1008.1
20260504211535 82 151 7.0 20.0 0.00 0.00 0.00 57 1008.1
20260504211035 82 95 6.0 19.0 0.00 0.00 0.00 56 1008.2
20260504210534 82 227 6.0 17.0 0.00 0.00 0.00 57 1008.3
20260504210032 82 186 7.0 20.0 0.00 0.00 0.00 57 1008.5
20260504205533 81 168 7.0 20.0 0.00 0.00 0.00 57 1008.5
20260504205032 81 203 9.0 20.0 0.00 0.00 0.00 59 1008.7
20260504204536 81 240 8.0 20.0 0.00 0.00 0.00 57 1008.8
20260504204531 82 99 6.0 18.0 0.00 0.00 0.00 57 1008.9
20260504203532 82 146 6.0 18.0 0.00 0.00 0.00 58 1009.1
20260504203029 82 205 6.0 18.0 0.00 0.00 0.00 55 1009.2
20260504202528 81 232 6.0 15.0 0.00 0.00 0.00 56 1009.3
20260504202025 81 246 6.0 15.0 0.00 0.00 0.00 57 1009.3
20260504201533 81 172 6.0 18.0 0.00 0.00 0.00 55 1009.7
20260504201525 81 282 6.0 16.0 0.00 0.00 0.00 58 1009.6
20260504201025 80 205 7.0 18.0 0.00 0.00 0.00 59 1009.6
20260504200026 81 162 6.0 18.0 0.00 0.00 0.00 57 1009.9
20260504195525 81 193 6.0 18.0 0.00 0.00 0.00 55 1009.9
20260504195029 80 150 7.0 20.0 0.00 0.00 0.00 56 1010.0
20260504195025 80 245 6.0 15.0 0.00 0.00 0.00 57 1009.9
20260504194641 80 157 7.0 20.0 0.00 0.00 0.00 55 1010.0
20260504193522 80 243 8.0 20.0 0.00 0.00 0.00 54 1010.1
20260504193022 80 220 7.0 20.0 0.00 0.00 0.00 53 1010.1
20260504192528 80 173 6.0 19.0 0.00 0.00 0.00 52 1010.2
20260504192523 80 140 7.0 19.0 0.00 0.00 0.00 54 1010.2
20260504191523 80 221 6.0 16.0 0.00 0.00 0.00 54 1010.4
20260504191024 80 283 6.0 16.0 0.00 0.00 0.00 53 1010.5
20260504190522 80 134 6.0 16.0 0.00 0.00 0.00 55 1010.7
20260504190024 80 164 5.0 17.0 0.00 0.00 0.00 54 1010.6
20260504185520 80 193 6.0 17.0 0.00 0.00 0.00 52 1010.8
20260504185021 79 127 8.0 17.0 0.00 0.00 0.00 53 1010.8
20260504184521 79 129 7.0 17.0 0.00 0.00 0.00 54 1010.8
20260504184020 79 270 6.0 13.0 0.00 0.00 0.00 53 1010.9
20260504183520 79 134 6.0 15.0 0.00 0.00 0.00 54 1010.9
20260504183020 79 64 6.0 15.0 0.00 0.00 0.00 54 1011.2
20260504182521 78 201 7.0 19.0 0.00 0.00 0.00 56 1011.3
20260504182021 78 234 7.0 19.0 0.00 0.00 0.00 53 1011.1
20260504181520 78 165 7.0 19.0 0.00 0.00 0.00 53 1011.2
20260504181021 78 184 7.0 19.0 0.00 0.00 0.00 52 1011.3
20260504180519 78 117 6.0 19.0 0.00 0.00 0.00 52 1011.5
20260504180019 78 315 6.0 19.0 0.00 0.00 0.00 54 1011.6
20260504175523 78 217 7.0 19.0 0.00 0.00 0.00 52 1011.7
20260504175517 78 212 6.0 17.0 0.00 0.00 0.00 52 1011.6
20260504174519 78 207 7.0 19.0 0.00 0.00 0.00 51 1011.9
20260504174018 78 190 7.0 19.0 0.00 0.00 0.00 52 1011.9
20260504173520 77 262 8.0 19.0 0.00 0.00 0.00 50 1012.1
20260504173020 77 200 7.0 16.0 0.00 0.00 0.00 49 1012.0
20260504172518 77 174 7.0 17.0 0.00 0.00 0.00 48 1012.1
20260504172023 77 191 6.0 16.0 0.00 0.00 0.00 48 1012.2
20260504172019 77 203 7.0 17.0 0.00 0.00 0.00 47 1012.1
20260504171018 77 146 6.0 16.0 0.00 0.00 0.00 50 1012.6
20260504170518 76 167 6.0 16.0 0.00 0.00 0.00 51 1012.8
20260504151021 70 148 6.0 16.0 0.00 0.00 0.00 68 1013.8
20260504151016 71 217 6.0 16.0 0.00 0.00 0.00 66 1013.7
20260504141017 67 140 4.0 10.0 0.00 0.00 0.00 75 1014.2
20260504140517 66 262 3.0 10.0 0.00 0.00 0.00 76 1014.2
20260504110515 0 0.0 0.0 0.00 0.00 0.00 1013.4
20260504110418 0 0.0 0.0 0.00 0.00 0.00 1013.4
20260504081510 60 212 2.0 7.0 0.00 0.00 0.00 77 1014.1
20260504081008 60 215 2.0 6.0 0.00 0.00 0.00 77 1014.1
20260504080507 60 209 2.0 6.0 0.00 0.00 0.00 77 1014.1
20260504050452 64 124 1.0 5.0 0.00 0.00 0.00 69 1015.9
20260504045949 64 198 1.0 5.0 0.00 0.00 0.00 69 1015.9
20260504045447 64 115 1.0 5.0 0.00 0.00 0.00 69 1015.9
20260504044948 64 105 1.0 5.0 0.00 0.00 0.00 68 1016.0
20260504044447 64 341 1.0 4.0 0.00 0.00 0.00 68 1016.1
20260504043948 64 134 1.0 5.0 0.00 0.00 0.00 68 1016.1
20260504043448 64 134 1.0 7.0 0.00 0.00 0.00 67 1016.1
20260504042948 65 124 1.0 7.0 0.00 0.00 0.00 67 1016.1
20260504042452 65 139 2.0 5.0 0.00 0.00 0.00 66 1016.0
20260504042447 65 118 2.0 4.0 0.00 0.00 0.00 67 1016.0
20260504041447 65 134 1.0 5.0 0.00 0.00 0.00 66 1016.0
20260504040946 65 134 1.0 5.0 0.00 0.00 0.00 66 1016.0
20260504040444 65 148 1.0 5.0 0.00 0.00 0.00 66 1016.0
20260504035944 65 129 1.0 4.0 0.00 0.00 0.00 66 1016.0
20260504035444 65 138 0.0 4.0 0.00 0.00 0.00 66 1016.0
20260504034942 65 214 1.0 4.0 0.00 0.00 0.00 66 1016.1
20260504034442 65 189 0.0 5.0 0.00 0.00 0.00 66 1016.2
20260504033942 65 193 1.0 5.0 0.00 0.00 0.00 66 1016.1
20260504033441 65 136 1.0 4.0 0.00 0.00 0.00 66 1016.0
20260504032947 66 219 0.0 3.0 0.00 0.00 0.00 65 1016.1
20260504032941 65 183 0.0 3.0 0.00 0.00 0.00 66 1016.1
20260504031941 66 115 0.0 3.0 0.00 0.00 0.00 65 1016.0
20260504031440 66 190 0.0 3.0 0.00 0.00 0.00 65 1016.0
20260504030940 66 166 0.0 3.0 0.00 0.00 0.00 65 1015.9
20260504030439 66 222 0.0 4.0 0.00 0.00 0.00 64 1015.9
20260504025939 66 146 0.0 4.0 0.00 0.00 0.00 64 1015.9
20260504025439 67 94 0.0 4.0 0.00 0.00 0.00 63 1015.9
20260504024939 67 236 1.0 4.0 0.00 0.00 0.00 63 1015.9
20260504024440 67 206 0.0 4.0 0.00 0.00 0.00 63 1016.0
20260504023939 67 147 0.0 3.0 0.00 0.00 0.00 62 1016.0
20260504023440 67 133 0.0 3.0 0.00 0.00 0.00 61 1016.0
20260504022938 67 146 0.0 2.0 0.00 0.00 0.00 61 1016.0
20260504022439 68 195 0.0 2.0 0.00 0.00 0.00 60 1016.0
20260504021938 68 161 0.0 2.0 0.00 0.00 0.00 60 1016.0
20260504021439 68 124 0.0 3.0 0.00 0.00 0.00 59 1015.9
20260504020937 69 124 0.0 3.0 0.00 0.00 0.00 59 1015.8
20260504020438 69 124 0.0 3.0 0.00 0.00 0.00 57 1015.8
20260504015943 69 127 0.0 2.0 0.00 0.00 0.00 57 1015.6
20260504015937 69 127 0.0 3.0 0.00 0.00 0.00 57 1015.7
20260504014938 69 139 0.0 1.0 0.00 0.00 0.00 56 1015.7
20260504014439 69 139 0.0 1.0 0.00 0.00 0.00 56 1015.8
20260504013943 70 139 0.0 0.0 0.00 0.00 0.00 55 1015.6
20260504013937 69 139 0.0 1.0 0.00 0.00 0.00 55 1015.8
20260504012941 71 160 0.0 2.0 0.00 0.00 0.00 53 1015.7
20260504012935 70 156 0.0 0.0 0.00 0.00 0.00 54 1015.6
20260504011936 71 160 0.0 2.0 0.00 0.00 0.00 52 1015.6
20260504011433 72 175 0.0 4.0 0.00 0.00 0.00 51 1015.7
20260504010935 73 205 0.0 4.0 0.00 0.00 0.00 49 1015.8
20260504010434 73 117 0.0 4.0 0.00 0.00 0.00 48 1015.7
20260504005933 74 136 1.0 7.0 0.00 0.00 0.00 47 1015.7
20260504005433 74 209 1.0 7.0 0.00 0.00 0.00 46 1015.6
20260504004933 75 212 1.0 7.0 0.00 0.00 0.00 45 1015.6
20260504004434 76 130 2.0 7.0 0.00 0.00 0.00 44 1015.6
20260504003933 77 169 2.0 6.0 0.00 0.00 0.00 43 1015.7
20260504003438 77 187 2.0 7.0 0.00 0.00 0.00 42 1015.7
20260504003432 77 208 2.0 6.0 0.00 0.00 0.00 42 1015.7
20260504002433 78 155 2.0 7.0 0.00 0.00 0.00 42 1015.7
20260504001933 78 191 3.0 10.0 0.00 0.00 0.00 42 1015.7
20260504001434 78 198 3.0 10.0 0.00 0.00 0.00 41 1015.7
20260504000939 79 192 3.0 9.0 0.00 0.00 0.00 40 1015.7
20260504000933 78 243 3.0 9.0 0.00 0.00 0.00 41 1015.7
20260503235934 79 182 3.0 9.0 0.00 0.00 0.00 41 1015.8
20260503235434 80 171 3.0 9.0 0.00 0.00 0.00 40 1015.8
20260503234933 80 229 3.0 9.0 0.00 0.00 0.00 39 1016.0